Terug naar catalogus

STARLINK-36639

ActiefCommunicatieSSO
NORAD 67669·PAYLOAD·🇺🇸 United States

Gelanceerd Feb 2, 2026 vanaf Vandenberg Space Force Base

Loading…

Volgende Passages (komende 24 uur)

TLE

VersSource: CelesTrak SupGP

Epoch: Sep 15, 2026, 04:14 UTC

1 67669C 26022X   26258.17687500 -.00052014  00000+0 -16147-2 0  2585
2 67669  97.2841 289.8258 0001155  92.3068 204.2546 15.33463725    12

Volg STARLINK-36639 in realtime met AllMySat

Download on the App Store